Time,TemperatureF,DewpointF,PressureIn,WindDirection,WindDirectionDegrees,WindSpeedMPH,WindSpeedGustMPH,Humidity,HourlyPrecipIn,Conditions,Clouds,dailyrainin,SoftwareType,DateUTC
2013-09-11 00:13:00,78.0,67.0,29.94,North,355,2.0,7.0,70,0.00,,,0.00,,2013-09-11 05:13:00,
2013-09-11 00:23:00,77.0,67.0,29.94,North,5,0.0,5.0,72,0.00,,,0.00,,2013-09-11 05:23:00,
2013-09-11 00:53:00,76.0,67.0,29.95,North,360,1.0,6.0,73,0.00,,,0.00,,2013-09-11 05:53:00,
2013-09-11 01:22:00,74.0,66.0,29.96,NNE,18,0.0,2.0,76,0.00,,,0.00,,2013-09-11 06:22:00,
2013-09-11 01:42:00,74.0,66.0,29.96,NNE,33,0.0,4.0,76,0.00,,,0.00,,2013-09-11 06:42:00,
2013-09-11 01:52:00,74.0,66.0,29.95,NE,37,1.0,2.0,77,0.00,,,0.00,,2013-09-11 06:52:00,
2013-09-11 02:12:00,73.0,65.0,29.96,ENE,67,0.0,4.0,77,0.00,,,0.00,,2013-09-11 07:12:00,
2013-09-11 02:23:00,73.0,66.0,29.96,ENE,76,0.0,1.0,78,0.00,,,0.00,,2013-09-11 07:23:00,
2013-09-11 02:52:00,72.0,65.0,29.97,ENE,76,0.0,1.0,80,0.00,,,0.00,,2013-09-11 07:52:00,
2013-09-11 03:11:00,72.0,67.0,29.98,SE,140,0.0,4.0,83,0.05,,,0.05,,2013-09-11 08:11:00,
2013-09-11 03:22:00,70.0,66.0,29.98,SE,142,0.0,2.0,86,0.08,,,0.08,,2013-09-11 08:22:00,
2013-09-11 03:52:00,69.0,66.0,29.96,SE,141,0.0,0.0,89,0.08,,,0.08,,2013-09-11 08:52:00,
2013-09-11 04:21:00,69.0,66.0,29.98,SE,142,0.0,0.0,91,0.00,,,0.08,,2013-09-11 09:21:00,
2013-09-11 04:43:00,-999.0,-99.9,29.98,NNW,342,0.0,1.0,-999,0.10,,,0.18,,2013-09-11 09:43:00,
2013-09-11 04:53:00,-999.0,-99.9,29.98,NNW,342,0.0,1.0,-999,0.10,,,0.18,,2013-09-11 09:53:00,
2013-09-11 05:03:00,-999.0,-99.9,29.98,NNW,342,0.0,0.0,-999,0.12,,,0.20,,2013-09-11 10:03:00,
2013-09-11 05:13:00,-999.0,-99.9,30.00,NNW,342,0.0,1.0,-999,0.12,,,0.20,,2013-09-11 10:13:00,
2013-09-11 05:23:00,-999.0,-99.9,30.00,NNW,342,0.0,1.0,-999,0.12,,,0.20,,2013-09-11 10:23:00,
2013-09-11 05:33:00,-999.0,-99.9,29.99,NNW,342,0.0,1.0,-999,0.04,,,0.20,,2013-09-11 10:33:00,
2013-09-11 05:43:00,-999.0,-99.9,29.99,NNW,342,0.0,0.0,-999,0.02,,,0.20,,2013-09-11 10:43:00,
2013-09-11 05:53:00,-999.0,-99.9,29.99,NNW,342,0.0,0.0,-999,0.02,,,0.20,,2013-09-11 10:53:00,
2013-09-11 06:03:00,-999.0,-99.9,30.00,NNW,342,0.0,0.0,-999,0.00,,,0.20,,2013-09-11 11:03:00,
2013-09-11 06:12:00,-999.0,-99.9,30.01,NNW,342,0.0,0.0,-999,0.00,,,0.20,,2013-09-11 11:12:00,
2013-09-11 06:22:00,-999.0,-99.9,30.01,NNW,342,0.0,0.0,-999,0.00,,,0.20,,2013-09-11 11:22:00,
2013-09-11 06:33:00,-999.0,-99.9,30.07,WSW,238,3.0,6.0,-999,0.02,,,0.22,,2013-09-11 11:33:00,
2013-09-11 06:42:00,-999.0,-99.9,30.08,WNW,284,5.0,18.0,-999,0.14,,,0.34,,2013-09-11 11:42:00,
2013-09-11 06:52:00,-999.0,-99.9,30.08,WNW,284,5.0,18.0,-999,0.14,,,0.34,,2013-09-11 11:52:00,
2013-09-11 07:01:00,-999.0,-99.9,30.06,South,177,2.0,8.0,-999,0.16,,,0.36,,2013-09-11 12:01:00,
2013-09-11 07:11:00,-999.0,-99.9,30.06,South,177,2.0,8.0,-999,0.16,,,0.36,,2013-09-11 12:11:00,
2013-09-11 07:22:00,-999.0,-99.9,30.06,SW,223,0.0,2.0,-999,0.20,,,0.40,,2013-09-11 12:22:00,
2013-09-11 07:32:00,-999.0,-99.9,30.04,NNW,344,0.0,4.0,-999,0.24,,,0.46,,2013-09-11 12:32:00,
2013-09-11 07:42:00,-999.0,-99.9,30.02,NW,325,0.0,2.0,-999,0.17,,,0.51,,2013-09-11 12:42:00,
2013-09-11 07:52:00,-999.0,-99.9,30.02,NW,325,0.0,2.0,-999,0.17,,,0.51,,2013-09-11 12:52:00,
2013-09-11 08:02:00,-999.0,-99.9,30.02,SSW,207,0.0,2.0,-999,0.17,,,0.53,,2013-09-11 13:02:00,
2013-09-11 08:12:00,-999.0,-99.9,30.02,SSW,207,0.0,2.0,-999,0.17,,,0.53,,2013-09-11 13:12:00,
2013-09-11 08:22:00,-999.0,-99.9,30.00,East,82,0.0,2.0,-999,0.15,,,0.54,,2013-09-11 13:22:00,
2013-09-11 08:33:00,-999.0,-99.9,30.00,East,82,0.0,0.0,-999,0.08,,,0.54,,2013-09-11 13:33:00,
2013-09-11 08:42:00,-999.0,-99.9,30.01,SSE,159,1.0,5.0,-999,0.03,,,0.54,,2013-09-11 13:42:00,
2013-09-11 08:53:00,-999.0,-99.9,30.01,SSE,159,1.0,5.0,-999,0.03,,,0.54,,2013-09-11 13:53:00,
2013-09-11 09:02:00,-999.0,-99.9,30.00,SSW,198,1.0,6.0,-999,0.01,,,0.54,,2013-09-11 14:02:00,
2013-09-11 09:11:00,-999.0,-99.9,30.00,South,188,3.0,6.0,-999,0.00,,,0.54,,2013-09-11 14:11:00,
2013-09-11 09:22:00,-999.0,-99.9,30.00,South,188,3.0,6.0,-999,0.00,,,0.54,,2013-09-11 14:22:00,
2013-09-11 09:32:00,-999.0,-99.9,30.02,SSE,151,3.0,8.0,-999,0.00,,,0.54,,2013-09-11 14:32:00,
2013-09-11 09:42:00,-999.0,-99.9,30.01,South,188,2.0,11.0,-999,0.00,,,0.54,,2013-09-11 14:42:00,
2013-09-11 09:52:00,-999.0,-99.9,30.01,South,188,2.0,11.0,-999,0.00,,,0.54,,2013-09-11 14:52:00,
2013-09-11 10:02:00,-999.0,-99.9,30.01,West,261,4.0,8.0,-999,0.00,,,0.54,,2013-09-11 15:02:00,
2013-09-11 10:11:00,-999.0,-99.9,30.01,WSW,246,1.0,7.0,-999,0.00,,,0.54,,2013-09-11 15:11:00,
2013-09-11 10:22:00,-999.0,-99.9,30.01,WSW,246,1.0,7.0,-999,0.00,,,0.54,,2013-09-11 15:22:00,
2013-09-11 10:33:00,-999.0,-99.9,30.01,SW,233,5.0,8.0,-999,0.00,,,0.54,,2013-09-11 15:33:00,
2013-09-11 10:43:00,-999.0,-99.9,30.01,SW,215,2.0,9.0,-999,0.00,,,0.54,,2013-09-11 15:43:00,
2013-09-11 10:54:00,-999.0,-99.9,30.01,SW,215,2.0,9.0,-999,0.00,,,0.54,,2013-09-11 15:54:00,
2013-09-11 11:13:00,72.0,67.0,30.01,SW,222,3.0,9.0,83,0.00,,,0.54,,2013-09-11 16:13:00,
2013-09-11 11:23:00,73.0,67.0,30.01,NW,313,2.0,8.0,81,0.00,,,0.54,,2013-09-11 16:23:00,
2013-09-11 11:53:00,74.0,67.0,30.02,South,190,3.0,11.0,78,0.00,,,0.54,,2013-09-11 16:53:00,
2013-09-11 12:12:00,75.0,67.0,30.01,SSW,209,6.0,10.0,77,0.00,,,0.54,,2013-09-11 17:12:00,
2013-09-11 12:23:00,75.0,68.0,30.02,SSW,200,1.0,10.0,78,0.00,,,0.54,,2013-09-11 17:23:00,
2013-09-11 12:52:00,74.0,66.0,30.02,SW,229,1.0,8.0,77,0.00,,,0.54,,2013-09-11 17:52:00,
2013-09-11 13:12:00,75.0,67.0,30.02,SSW,192,5.0,11.0,77,0.00,,,0.54,,2013-09-11 18:12:00,
2013-09-11 13:22:00,76.0,67.0,30.02,West,269,5.0,11.0,75,0.00,,,0.54,,2013-09-11 18:22:00,
2013-09-11 13:52:00,77.0,67.0,30.01,SW,221,5.0,9.0,72,0.00,,,0.54,,2013-09-11 18:52:00,
2013-09-11 14:11:00,77.0,67.0,30.01,SSW,213,4.0,7.0,72,0.00,,,0.54,,2013-09-11 19:11:00,
2013-09-11 14:22:00,77.0,68.0,30.00,WSW,250,4.0,7.0,73,0.00,,,0.54,,2013-09-11 19:22:00,
2013-09-11 14:53:00,77.0,67.0,30.00,South,182,4.0,9.0,71,0.00,,,0.54,,2013-09-11 19:53:00,
2013-09-11 15:12:00,79.0,68.0,30.00,WSW,242,4.0,8.0,69,0.00,,,0.54,,2013-09-11 20:12:00,
2013-09-11 15:22:00,78.0,67.0,29.99,SSW,210,1.0,7.0,69,0.00,,,0.54,,2013-09-11 20:22:00,
2013-09-11 15:52:00,79.0,67.0,29.99,SW,225,1.0,11.0,67,0.00,,,0.54,,2013-09-11 20:52:00,
2013-09-11 16:12:00,79.0,67.0,29.98,SW,222,1.0,7.0,67,0.00,,,0.54,,2013-09-11 21:12:00,
2013-09-11 16:22:00,80.0,67.0,29.98,WSW,248,3.0,8.0,65,0.00,,,0.54,,2013-09-11 21:22:00,
2013-09-11 16:54:00,81.0,66.0,29.98,West,274,3.0,10.0,61,0.00,,,0.54,,2013-09-11 21:54:00,
2013-09-11 17:13:00,81.0,66.0,29.98,SW,234,5.0,11.0,61,0.00,,,0.54,,2013-09-11 22:13:00,
2013-09-11 17:24:00,80.0,66.0,29.98,SW,221,1.0,8.0,62,0.00,,,0.54,,2013-09-11 22:24:00,
2013-09-11 17:54:00,79.0,66.0,29.97,WSW,238,1.0,7.0,65,0.00,,,0.54,,2013-09-11 22:54:00,
2013-09-11 18:22:00,79.0,66.0,29.97,WSW,248,2.0,8.0,65,0.00,,,0.54,,2013-09-11 23:22:00,
2013-09-11 18:53:00,77.0,65.0,29.96,SW,230,3.0,6.0,67,0.00,,,0.54,,2013-09-11 23:53:00,
2013-09-11 19:11:00,76.0,64.0,29.96,SSW,202,0.0,8.0,67,0.00,,,0.54,,2013-09-12 00:11:00,
2013-09-11 19:21:00,76.0,65.0,29.96,SW,227,1.0,5.0,68,0.00,,,0.54,,2013-09-12 00:21:00,
2013-09-11 19:42:00,75.0,64.0,29.96,SSW,211,1.0,4.0,69,0.00,,,0.54,,2013-09-12 00:42:00,
2013-09-11 19:52:00,74.0,64.0,29.96,SW,214,0.0,1.0,71,0.00,,,0.54,,2013-09-12 00:52:00,
2013-09-11 20:11:00,74.0,64.0,29.96,SSW,194,1.0,3.0,72,-99.99,,,-99.99,,2013-09-12 01:11:00,
2013-09-11 20:22:00,73.0,64.0,29.96,SW,232,0.0,2.0,73,-99.99,,,-99.99,,2013-09-12 01:22:00,
2013-09-11 20:42:00,73.0,65.0,29.96,SSW,203,0.0,4.0,75,-99.99,,,-99.99,,2013-09-12 01:42:00,
2013-09-11 20:52:00,72.0,64.0,29.96,SSW,203,0.0,2.0,76,-99.99,,,-99.99,,2013-09-12 01:52:00,
2013-09-11 21:12:00,72.0,64.0,29.96,SSW,203,0.0,1.0,77,0.00,,,-99.99,,2013-09-12 02:12:00,
2013-09-11 21:22:00,71.0,64.0,29.96,SSW,203,0.0,0.0,78,0.00,,,-99.99,,2013-09-12 02:22:00,
2013-09-11 22:22:00,69.0,64.0,29.96,SSW,207,1.0,2.0,83,0.00,,,-99.99,,2013-09-12 03:22:00,
2013-09-11 22:55:00,70.0,65.0,29.96,West,267,0.0,2.0,83,0.00,,,-99.99,,2013-09-12 03:55:00,
2013-09-11 23:14:00,70.0,65.0,29.97,WNW,294,2.0,6.0,83,0.00,,,-99.99,,2013-09-12 04:14:00,
2013-09-11 23:24:00,70.0,65.0,29.97,West,281,0.0,8.0,83,0.00,,,-99.99,,2013-09-12 04:24:00,
2013-09-11 23:54:00,70.0,64.0,29.97,WNW,284,0.0,4.0,82,0.00,,,-99.99,,2013-09-12 04:54:00,